XNO1029 EGLL-EFHK

Flight info

Callsign XNO1029
Flight time 2h 33m
Altitude 37000
Route BPK Q295 MATCH P144 SAMHO DCT LARGA DCT SOPTO DCT AMRAM DCT INVOL DCT ELRID DCT RIRIP Y364 LAKUT
Aircraft A319/M-SDE3FGHIRWY/LB1

Departure

Time 2026-04-22 06:13
Airport London Heathrow Airport (EGLL)

Arrival

Time 2026-04-22 08:47
Airport Helsinki Vantaa Airport (EFHK)
Time Latitude Longitude Altitude Speed Heading
2026-04-22 05:48 51.46938 -0.44210 89 ft 0 kts 270°
2026-04-22 06:01 51.46939 -0.44176 88 ft 4 kts 270°
2026-04-22 06:01 51.46939 -0.44133 86 ft 4 kts 270°
2026-04-22 06:01 51.46939 -0.44098 86 ft 4 kts 261°
2026-04-22 06:02 51.46948 -0.44064 91 ft 4 kts 210°
2026-04-22 06:02 51.46971 -0.44056 89 ft 4 kts 180°
2026-04-22 06:02 51.46981 -0.44056 88 ft 0 kts 180°
2026-04-22 06:05 51.46979 -0.44056 87 ft 1 kts 179°
2026-04-22 06:05 51.46961 -0.44055 88 ft 4 kts 179°
2026-04-22 06:05 51.46927 -0.44055 89 ft 6 kts 180°
2026-04-22 06:06 51.46878 -0.44054 87 ft 8 kts 179°
2026-04-22 06:06 51.46814 -0.44054 86 ft 10 kts 180°
2026-04-22 06:06 51.46734 -0.44053 86 ft 13 kts 178°
2026-04-22 06:06 51.46667 -0.44122 86 ft 14 kts 265°
2026-04-22 06:07 51.46666 -0.44289 86 ft 16 kts 270°
2026-04-22 06:07 51.46666 -0.44477 86 ft 18 kts 270°
2026-04-22 06:07 51.46664 -0.44686 86 ft 20 kts 269°
2026-04-22 06:07 51.46664 -0.44920 86 ft 22 kts 270°
2026-04-22 06:08 51.46663 -0.45175 86 ft 24 kts 270°
2026-04-22 06:08 51.46662 -0.45453 86 ft 26 kts 269°
2026-04-22 06:08 51.46661 -0.45756 86 ft 28 kts 269°
2026-04-22 06:08 51.46660 -0.46069 86 ft 23 kts 269°
2026-04-22 06:09 51.46658 -0.46260 88 ft 17 kts 268°
2026-04-22 06:09 51.46659 -0.46464 86 ft 19 kts 271°
2026-04-22 06:09 51.46658 -0.46692 86 ft 21 kts 269°
2026-04-22 06:09 51.46657 -0.46940 89 ft 23 kts 270°
2026-04-22 06:10 51.46656 -0.47217 86 ft 26 kts 270°
2026-04-22 06:10 51.46655 -0.47510 86 ft 28 kts 269°
2026-04-22 06:10 51.46654 -0.47830 86 ft 30 kts 270°
2026-04-22 06:10 51.46653 -0.48134 86 ft 28 kts 270°
2026-04-22 06:11 51.46653 -0.48454 86 ft 30 kts 270°
2026-04-22 06:11 51.46652 -0.48673 86 ft 12 kts 270°
2026-04-22 06:11 51.46633 -0.48754 88 ft 7 kts 204°
2026-04-22 06:11 51.46597 -0.48771 88 ft 3 kts 196°
2026-04-22 06:12 51.46569 -0.48784 86 ft 6 kts 195°
2026-04-22 06:12 51.46506 -0.48767 88 ft 11 kts 146°
2026-04-22 06:12 51.46478 -0.48641 86 ft 14 kts 89°
2026-04-22 06:12 51.46479 -0.48458 86 ft 22 kts 90°
2026-04-22 06:13 51.46480 -0.47990 87 ft 71 kts 89°
2026-04-22 06:13 51.46484 -0.46866 89 ft 129 kts 89°
2026-04-22 06:13 51.46486 -0.45183 287 ft 159 kts 88°
2026-04-22 06:13 51.46498 -0.43417 1041 ft 158 kts 87°
2026-04-22 06:14 51.46600 -0.41681 1825 ft 158 kts 75°
2026-04-22 06:14 51.47193 -0.40103 2292 ft 178 kts 55°
2026-04-22 06:14 51.48043 -0.38473 2673 ft 203 kts 54°
2026-04-22 06:14 51.49002 -0.36632 3167 ft 227 kts 54°
2026-04-22 06:15 51.50044 -0.34635 3931 ft 238 kts 54°
2026-04-22 06:15 51.51121 -0.32581 4896 ft 243 kts 54°
2026-04-22 06:15 51.52150 -0.30413 5826 ft 244 kts 66°
2026-04-22 06:15 51.52782 -0.27875 6706 ft 248 kts 69°
2026-04-22 06:16 51.53876 -0.25663 7523 ft 264 kts 41°
2026-04-22 06:16 51.55600 -0.24480 8372 ft 280 kts 14°
2026-04-22 06:16 51.57577 -0.24412 9253 ft 288 kts
2026-04-22 06:16 51.59584 -0.24581 10250 ft 290 kts
2026-04-22 06:17 51.61643 -0.24760 10768 ft 306 kts
2026-04-22 06:17 51.63851 -0.24927 11005 ft 329 kts
2026-04-22 06:17 51.66224 -0.25087 11177 ft 352 kts
2026-04-22 06:17 51.68717 -0.25237 11600 ft 364 kts
2026-04-22 06:18 51.71267 -0.25381 12235 ft 368 kts
2026-04-22 06:18 51.73840 -0.25507 12901 ft 372 kts
2026-04-22 06:18 51.76391 -0.24962 13528 ft 371 kts 20°
2026-04-22 06:18 51.78686 -0.23128 14172 ft 369 kts 38°
2026-04-22 06:19 51.80709 -0.20561 14748 ft 372 kts 41°
2026-04-22 06:19 51.82740 -0.17926 15247 ft 375 kts 40°
2026-04-22 06:19 51.84784 -0.15266 15828 ft 379 kts 40°
2026-04-22 06:19 51.86843 -0.12583 16436 ft 382 kts 40°
2026-04-22 06:20 51.88922 -0.09873 17024 ft 386 kts 40°
2026-04-22 06:20 51.91024 -0.07135 17639 ft 389 kts 40°
2026-04-22 06:20 51.93137 -0.04381 18222 ft 393 kts 40°
2026-04-22 06:20 51.95275 -0.01589 18797 ft 396 kts 40°
2026-04-22 06:21 51.97426 0.01224 19333 ft 398 kts 39°
2026-04-22 06:21 51.99587 0.04055 19905 ft 399 kts 38°
2026-04-22 06:21 52.01753 0.06895 20435 ft 402 kts 38°
2026-04-22 06:21 52.03934 0.09751 20916 ft 405 kts 37°
2026-04-22 06:22 52.06137 0.12632 21386 ft 408 kts 38°
2026-04-22 06:22 52.08353 0.15536 21832 ft 411 kts 38°
2026-04-22 06:22 52.10585 0.18472 22286 ft 414 kts 37°
2026-04-22 06:22 52.12832 0.21436 22736 ft 417 kts 37°
2026-04-22 06:23 52.15087 0.24416 23179 ft 419 kts 37°
2026-04-22 06:23 52.17323 0.27378 23613 ft 421 kts 37°
2026-04-22 06:23 52.19602 0.30402 24022 ft 424 kts 37°
2026-04-22 06:23 52.21896 0.33446 24377 ft 426 kts 36°
2026-04-22 06:24 52.26545 0.39623 25095 ft 431 kts 36°
2026-04-22 06:24 52.28844 0.42677 25440 ft 433 kts 36°
2026-04-22 06:24 52.31192 0.45802 25729 ft 437 kts 37°
2026-04-22 06:25 52.33557 0.48958 26036 ft 440 kts 37°
2026-04-22 06:25 52.35934 0.52136 26391 ft 442 kts 37°
2026-04-22 06:25 52.38320 0.55333 26764 ft 444 kts 37°
2026-04-22 06:25 52.40714 0.58546 27106 ft 445 kts 36°
2026-04-22 06:26 52.43115 0.61770 27435 ft 447 kts 36°
2026-04-22 06:26 52.45521 0.65007 27764 ft 449 kts 36°
2026-04-22 06:26 52.47939 0.68268 28085 ft 451 kts 36°
2026-04-22 06:26 52.50363 0.71539 28400 ft 452 kts 35°
2026-04-22 06:27 52.52799 0.74826 28762 ft 453 kts 36°
2026-04-22 06:27 52.55229 0.78110 29214 ft 452 kts 36°
2026-04-22 06:27 52.57647 0.81383 29679 ft 450 kts 35°
2026-04-22 06:27 52.60062 0.84658 30160 ft 449 kts 35°
2026-04-22 06:28 52.62464 0.87924 30609 ft 447 kts 35°
2026-04-22 06:28 52.64855 0.91186 31001 ft 446 kts 35°
2026-04-22 06:28 52.67239 0.94445 31385 ft 445 kts 35°
2026-04-22 06:28 52.69618 0.97699 31769 ft 445 kts 35°
2026-04-22 06:29 52.71997 1.00954 32158 ft 444 kts 37°
2026-04-22 06:29 52.74379 1.04213 32464 ft 446 kts 38°
2026-04-22 06:29 52.76768 1.07482 32811 ft 446 kts 38°
2026-04-22 06:29 52.79156 1.10751 33188 ft 446 kts 38°
2026-04-22 06:30 52.81539 1.14025 33550 ft 446 kts 38°
2026-04-22 06:30 52.83924 1.17307 33941 ft 445 kts 38°
2026-04-22 06:30 52.86302 1.20583 34342 ft 445 kts 38°
2026-04-22 06:30 52.88645 1.23813 34684 ft 444 kts 38°
2026-04-22 06:31 52.91013 1.27091 35007 ft 444 kts 38°
2026-04-22 06:31 52.93378 1.30375 35323 ft 444 kts 38°
2026-04-22 06:31 52.95746 1.33666 35626 ft 444 kts 38°
2026-04-22 06:31 52.98114 1.36958 35920 ft 444 kts 38°
2026-04-22 06:32 53.00484 1.40250 36214 ft 444 kts 38°
2026-04-22 06:32 53.02853 1.43540 36501 ft 444 kts 38°
2026-04-22 06:32 53.05223 1.46844 36802 ft 444 kts 38°
2026-04-22 06:32 53.07587 1.50151 37072 ft 444 kts 38°
2026-04-22 06:33 53.09950 1.53467 37334 ft 445 kts 39°
2026-04-22 06:33 53.14679 1.60113 37426 ft 444 kts 39°
2026-04-22 06:34 53.19405 1.66750 37422 ft 444 kts 39°
2026-04-22 06:34 53.24130 1.73399 37431 ft 444 kts 39°
2026-04-22 06:35 53.28847 1.80077 37430 ft 444 kts 40°
2026-04-22 06:35 53.33559 1.86782 37433 ft 445 kts 40°
2026-04-22 06:36 53.38271 1.93487 37434 ft 445 kts 40°
2026-04-22 06:36 53.42985 2.00201 37434 ft 444 kts 40°
2026-04-22 06:37 53.47687 2.06931 37441 ft 444 kts 40°
2026-04-22 06:37 53.52376 2.13679 37449 ft 443 kts 40°
2026-04-22 06:38 53.57054 2.20413 37449 ft 442 kts 40°
2026-04-22 06:38 53.61687 2.27113 37445 ft 442 kts 40°
2026-04-22 06:39 53.66342 2.33870 37438 ft 442 kts 40°
2026-04-22 06:39 53.70990 2.40645 37435 ft 441 kts 40°
2026-04-22 06:40 53.75641 2.47424 37438 ft 441 kts 40°
2026-04-22 06:40 53.80285 2.54210 37431 ft 442 kts 40°
2026-04-22 06:41 53.84928 2.61015 37434 ft 442 kts 41°
2026-04-22 06:41 53.89563 2.67844 37451 ft 441 kts 41°
2026-04-22 06:42 53.93406 2.73519 37464 ft 440 kts 41°
2026-04-22 06:42 53.98012 2.80345 37460 ft 439 kts 41°
2026-04-22 06:43 54.02614 2.87173 37466 ft 439 kts 41°
2026-04-22 06:43 54.07242 2.94048 37461 ft 438 kts 41°
2026-04-22 06:44 54.11794 3.00858 37464 ft 439 kts 41°
2026-04-22 06:44 54.16375 3.07733 37464 ft 439 kts 41°
2026-04-22 06:45 54.20951 3.14618 37455 ft 438 kts 41°
2026-04-22 06:45 54.25525 3.21512 37470 ft 438 kts 42°
2026-04-22 06:46 54.30083 3.28404 37472 ft 437 kts 42°
2026-04-22 06:46 54.34632 3.35290 37477 ft 436 kts 42°
2026-04-22 06:47 54.39169 3.42197 37470 ft 436 kts 42°
2026-04-22 06:47 54.43700 3.49111 37472 ft 436 kts 42°
2026-04-22 06:48 54.48220 3.56043 37471 ft 435 kts 42°
2026-04-22 06:48 54.52741 3.62978 37476 ft 435 kts 42°
2026-04-22 06:49 54.57253 3.69931 37473 ft 435 kts 42°
2026-04-22 06:49 54.61763 3.76894 37478 ft 435 kts 42°
2026-04-22 06:50 54.66265 3.83871 37479 ft 435 kts 42°
2026-04-22 06:50 54.70761 3.90855 37472 ft 434 kts 43°
2026-04-22 06:51 54.75246 3.97859 37474 ft 434 kts 43°
2026-04-22 06:51 54.79724 4.04872 37478 ft 434 kts 43°
2026-04-22 06:52 54.84172 4.11857 37473 ft 434 kts 43°
2026-04-22 06:52 54.88457 4.19215 37473 ft 433 kts 47°
2026-04-22 06:53 54.92536 4.26926 37468 ft 433 kts 48°
2026-04-22 06:53 54.96612 4.34659 37462 ft 433 kts 48°
2026-04-22 06:54 55.00679 4.42402 37481 ft 433 kts 48°
2026-04-22 06:54 55.04748 4.50158 37470 ft 433 kts 48°
2026-04-22 06:55 55.08813 4.57929 37476 ft 433 kts 48°
2026-04-22 06:55 55.12867 4.65701 37465 ft 433 kts 48°
2026-04-22 06:56 55.16912 4.73496 37465 ft 432 kts 48°
2026-04-22 06:56 55.20951 4.81300 37462 ft 433 kts 48°
2026-04-22 06:57 55.24982 4.89137 37460 ft 433 kts 48°
2026-04-22 06:57 55.29011 4.96985 37462 ft 433 kts 48°
2026-04-22 06:58 55.32705 5.05313 37464 ft 433 kts 55°
2026-04-22 06:58 55.36155 5.13894 37460 ft 433 kts 55°
2026-04-22 06:59 55.39622 5.22550 37470 ft 433 kts 55°
2026-04-22 06:59 55.43085 5.31237 37468 ft 433 kts 55°
2026-04-22 07:00 55.46545 5.39929 37469 ft 433 kts 55°
2026-04-22 07:00 55.50005 5.48632 37472 ft 433 kts 55°
2026-04-22 07:01 55.53445 5.57361 37483 ft 433 kts 55°
2026-04-22 07:01 55.56881 5.66086 37471 ft 432 kts 55°
2026-04-22 07:02 55.60310 5.74817 37473 ft 432 kts 55°
2026-04-22 07:02 55.63723 5.83562 37469 ft 432 kts 56°
2026-04-22 07:03 55.67131 5.92316 37465 ft 432 kts 56°
2026-04-22 07:03 55.70532 6.01085 37476 ft 431 kts 56°
2026-04-22 07:04 55.73926 6.09877 37457 ft 431 kts 56°
2026-04-22 07:04 55.77314 6.18659 37453 ft 431 kts 56°
2026-04-22 07:05 55.80694 6.27447 37466 ft 430 kts 56°
2026-04-22 07:05 55.84054 6.36247 37471 ft 429 kts 56°
2026-04-22 07:06 55.87386 6.44982 37454 ft 429 kts 56°
2026-04-22 07:06 55.90733 6.53776 37464 ft 429 kts 56°
2026-04-22 07:07 55.94059 6.62607 37451 ft 429 kts 56°
2026-04-22 07:07 55.97480 6.71323 37437 ft 429 kts 54°
2026-04-22 07:08 56.01031 6.79887 37448 ft 429 kts 53°
2026-04-22 07:08 56.04575 6.88456 37459 ft 428 kts 53°
2026-04-22 07:09 56.08076 6.97076 37454 ft 428 kts 54°
2026-04-22 07:09 56.11548 7.05721 37431 ft 427 kts 54°
2026-04-22 07:10 56.15011 7.14362 37441 ft 426 kts 54°
2026-04-22 07:10 56.18461 7.23006 37447 ft 426 kts 54°
2026-04-22 07:11 56.21908 7.31652 37433 ft 426 kts 54°
2026-04-22 07:11 56.25331 7.40248 37434 ft 426 kts 54°
2026-04-22 07:12 56.28770 7.48923 37441 ft 425 kts 54°
2026-04-22 07:12 56.32195 7.57605 37440 ft 425 kts 54°
2026-04-22 07:13 56.35600 7.66288 37418 ft 424 kts 55°
2026-04-22 07:13 56.38992 7.74981 37419 ft 423 kts 55°
2026-04-22 07:14 56.42383 7.83668 37419 ft 423 kts 55°
2026-04-22 07:14 56.45778 7.92351 37420 ft 423 kts 55°
2026-04-22 07:15 56.49157 8.01048 37428 ft 422 kts 55°
2026-04-22 07:15 56.52519 8.09764 37414 ft 422 kts 55°
2026-04-22 07:16 56.55876 8.18500 37422 ft 422 kts 55°
2026-04-22 07:16 56.59223 8.27228 37418 ft 421 kts 55°
2026-04-22 07:17 56.62561 8.35966 37416 ft 421 kts 56°
2026-04-22 07:17 56.65883 8.44700 37424 ft 420 kts 56°
2026-04-22 07:18 56.69197 8.53449 37418 ft 420 kts 56°
2026-04-22 07:18 56.72479 8.62134 37415 ft 419 kts 56°
2026-04-22 07:19 56.75777 8.70894 37403 ft 419 kts 56°
2026-04-22 07:19 56.79071 8.79669 37419 ft 419 kts 56°
2026-04-22 07:20 56.82348 8.88438 37410 ft 418 kts 56°
2026-04-22 07:20 56.85611 8.97206 37408 ft 417 kts 56°
2026-04-22 07:21 56.88867 9.05977 37412 ft 416 kts 56°
2026-04-22 07:21 56.92113 9.14734 37400 ft 416 kts 56°
2026-04-22 07:22 56.95343 9.23512 37404 ft 416 kts 56°
2026-04-22 07:22 56.98569 9.32310 37400 ft 415 kts 56°
2026-04-22 07:23 57.01788 9.41106 37372 ft 415 kts 56°
2026-04-22 07:23 57.05005 9.49914 37390 ft 415 kts 57°
2026-04-22 07:24 57.08174 9.58661 37386 ft 413 kts 57°
2026-04-22 07:24 57.11356 9.67450 37378 ft 412 kts 57°
2026-04-22 07:25 57.14529 9.76241 37371 ft 412 kts 57°
2026-04-22 07:25 57.17690 9.85046 37374 ft 412 kts 57°
2026-04-22 07:26 57.20841 9.93843 37376 ft 411 kts 57°
2026-04-22 07:26 57.23984 10.02666 37392 ft 411 kts 57°
2026-04-22 07:27 57.27116 10.11495 37372 ft 411 kts 58°
2026-04-22 07:27 57.30240 10.20322 37394 ft 410 kts 57°
2026-04-22 07:28 57.34909 10.33552 37378 ft 409 kts 58°
2026-04-22 07:28 57.38001 10.42381 37376 ft 408 kts 58°
2026-04-22 07:29 57.41083 10.51218 37372 ft 408 kts 58°
2026-04-22 07:29 57.44164 10.60067 37359 ft 408 kts 58°
2026-04-22 07:30 57.47220 10.68860 37365 ft 408 kts 58°
2026-04-22 07:30 57.50280 10.77721 37349 ft 407 kts 58°
2026-04-22 07:31 57.53321 10.86582 37359 ft 406 kts 58°
2026-04-22 07:31 57.56363 10.95442 37379 ft 406 kts 58°
2026-04-22 07:32 57.58904 11.02868 37364 ft 405 kts 58°
2026-04-22 07:32 57.61926 11.11732 37368 ft 405 kts 58°
2026-04-22 07:33 57.64919 11.20558 37355 ft 405 kts 59°
2026-04-22 07:33 57.67820 11.29564 37345 ft 404 kts 60°
2026-04-22 07:34 57.70609 11.38766 37323 ft 404 kts 62°
2026-04-22 07:34 57.73347 11.47841 37336 ft 403 kts 61°
2026-04-22 07:35 57.76129 11.56984 37338 ft 408 kts 61°
2026-04-22 07:35 57.78981 11.66354 37329 ft 418 kts 61°
2026-04-22 07:36 57.81862 11.75871 37323 ft 420 kts 61°
2026-04-22 07:36 57.84740 11.85418 37329 ft 421 kts 61°
2026-04-22 07:37 57.87612 11.94987 37331 ft 421 kts 62°
2026-04-22 07:37 57.90481 12.04578 37339 ft 421 kts 62°
2026-04-22 07:38 57.93335 12.14166 37332 ft 420 kts 62°
2026-04-22 07:38 57.96173 12.23751 37341 ft 419 kts 62°
2026-04-22 07:39 57.98993 12.33344 37370 ft 418 kts 62°
2026-04-22 07:39 58.01806 12.42932 37362 ft 418 kts 62°
2026-04-22 07:40 58.04613 12.52516 37354 ft 417 kts 62°
2026-04-22 07:40 58.07398 12.62048 37351 ft 417 kts 62°
2026-04-22 07:41 58.10206 12.71709 37350 ft 417 kts 62°
2026-04-22 07:41 58.12989 12.81324 37346 ft 417 kts 62°
2026-04-22 07:42 58.15742 12.90880 37340 ft 416 kts 62°
2026-04-22 07:42 58.18506 13.00527 37343 ft 416 kts 62°
2026-04-22 07:43 58.21257 13.10181 37359 ft 416 kts 62°
2026-04-22 07:43 58.24001 13.19855 37353 ft 416 kts 62°
2026-04-22 07:44 58.26749 13.29524 37344 ft 416 kts 62°
2026-04-22 07:44 58.29490 13.39213 37342 ft 416 kts 63°
2026-04-22 07:45 58.32208 13.48921 37327 ft 416 kts 63°
2026-04-22 07:45 58.34917 13.58629 37329 ft 414 kts 63°
2026-04-22 07:46 58.37612 13.68307 37336 ft 413 kts 63°
2026-04-22 07:46 58.40295 13.77987 37338 ft 412 kts 63°
2026-04-22 07:47 58.42962 13.87665 37349 ft 412 kts 63°
2026-04-22 07:47 58.45621 13.97345 37346 ft 412 kts 63°
2026-04-22 07:48 58.48277 14.07037 37314 ft 411 kts 63°
2026-04-22 07:48 58.50918 14.16732 37301 ft 411 kts 63°
2026-04-22 07:49 58.53548 14.26435 37268 ft 409 kts 63°
2026-04-22 07:49 58.56141 14.36012 37272 ft 407 kts 63°
2026-04-22 07:50 58.58731 14.45633 37271 ft 406 kts 63°
2026-04-22 07:50 58.61309 14.55273 37273 ft 406 kts 63°
2026-04-22 07:51 58.63877 14.64933 37273 ft 406 kts 63°
2026-04-22 07:51 58.66442 14.74605 37276 ft 406 kts 63°
2026-04-22 07:52 58.69005 14.84285 37280 ft 406 kts 63°
2026-04-22 07:52 58.71563 14.93981 37282 ft 406 kts 63°
2026-04-22 07:53 58.74114 15.03690 37267 ft 406 kts 63°
2026-04-22 07:53 58.76652 15.13401 37282 ft 405 kts 63°
2026-04-22 07:54 58.79177 15.23107 37284 ft 405 kts 63°
2026-04-22 07:54 58.81670 15.32761 37282 ft 405 kts 63°
2026-04-22 07:55 58.84166 15.42487 37289 ft 404 kts 63°
2026-04-22 07:55 58.86662 15.52204 37264 ft 403 kts 63°
2026-04-22 07:56 58.89146 15.61919 37251 ft 403 kts 63°
2026-04-22 07:56 58.91619 15.71645 37247 ft 403 kts 63°
2026-04-22 07:57 58.94081 15.81383 37255 ft 402 kts 63°
2026-04-22 07:57 58.96540 15.91115 37243 ft 402 kts 63°
2026-04-22 07:58 58.98990 16.00859 37246 ft 402 kts 63°
2026-04-22 07:58 59.01430 16.10629 37244 ft 402 kts 63°
2026-04-22 07:59 59.03859 16.20404 37264 ft 402 kts 63°
2026-04-22 07:59 59.06263 16.30114 37250 ft 401 kts 63°
2026-04-22 08:00 59.08675 16.39903 37243 ft 401 kts 63°
2026-04-22 08:00 59.11076 16.49689 37248 ft 401 kts 63°
2026-04-22 08:01 59.13473 16.59498 37202 ft 401 kts 63°
2026-04-22 08:01 59.15861 16.69330 37203 ft 401 kts 63°
2026-04-22 08:02 59.18244 16.79168 37210 ft 402 kts 63°
2026-04-22 08:02 59.20624 16.89034 37217 ft 402 kts 63°
2026-04-22 08:03 59.22995 16.98919 37224 ft 402 kts 63°
2026-04-22 08:03 59.25358 17.08806 37213 ft 402 kts 63°
2026-04-22 08:04 59.27719 17.18713 37206 ft 402 kts 63°
2026-04-22 08:04 59.30072 17.28630 37196 ft 402 kts 63°
2026-04-22 08:05 59.32410 17.38576 37177 ft 402 kts 63°
2026-04-22 08:05 59.34745 17.48554 37173 ft 403 kts 63°
2026-04-22 08:06 59.37077 17.58544 37169 ft 403 kts 63°
2026-04-22 08:06 59.39387 17.68486 37169 ft 403 kts 63°
2026-04-22 08:07 59.41711 17.78524 37201 ft 404 kts 63°
2026-04-22 08:07 59.44019 17.88564 37183 ft 403 kts 63°
2026-04-22 08:08 59.46323 17.98620 37178 ft 403 kts 63°
2026-04-22 08:08 59.48618 18.08692 37175 ft 403 kts 63°
2026-04-22 08:09 59.50908 18.18780 37149 ft 404 kts 63°
2026-04-22 08:09 59.53196 18.28895 37149 ft 404 kts 63°
2026-04-22 08:10 59.55478 18.39033 37150 ft 405 kts 63°
2026-04-22 08:10 59.57755 18.49186 37151 ft 405 kts 63°
2026-04-22 08:11 59.60054 18.59319 37180 ft 405 kts 63°
2026-04-22 08:11 59.62344 18.69404 37170 ft 405 kts 63°
2026-04-22 08:12 59.64642 18.79573 37162 ft 405 kts 63°
2026-04-22 08:12 59.66925 18.89764 37152 ft 405 kts 63°
2026-04-22 08:13 59.69202 18.99965 37138 ft 406 kts 63°
2026-04-22 08:13 59.71473 19.10207 37131 ft 407 kts 63°
2026-04-22 08:14 59.73739 19.20498 37129 ft 407 kts 63°
2026-04-22 08:14 59.76001 19.30793 37129 ft 407 kts 63°
2026-04-22 08:15 59.78259 19.41113 37126 ft 408 kts 63°
2026-04-22 08:15 59.80507 19.51452 37128 ft 408 kts 63°
2026-04-22 08:16 59.82749 19.61800 37119 ft 408 kts 63°
2026-04-22 08:16 59.84982 19.72177 37118 ft 408 kts 64°
2026-04-22 08:17 59.87212 19.82568 37107 ft 408 kts 63°
2026-04-22 08:17 59.89439 19.92973 37108 ft 409 kts 63°
2026-04-22 08:18 59.91661 20.03406 37107 ft 409 kts 63°
2026-04-22 08:18 59.93855 20.13806 37109 ft 409 kts 63°
2026-04-22 08:19 59.96048 20.24284 37138 ft 410 kts 63°
2026-04-22 08:19 59.98238 20.34801 37125 ft 410 kts 63°
2026-04-22 08:20 60.00417 20.45324 37112 ft 410 kts 63°
2026-04-22 08:20 60.02602 20.55846 37106 ft 410 kts 63°
2026-04-22 08:21 60.04777 20.66394 37093 ft 410 kts 63°
2026-04-22 08:21 60.06938 20.76957 37087 ft 410 kts 63°
2026-04-22 08:22 60.08733 20.85750 37084 ft 410 kts 63°
2026-04-22 08:22 60.10879 20.96342 37078 ft 410 kts 64°
2026-04-22 08:23 60.13020 21.06959 37078 ft 410 kts 64°
2026-04-22 08:23 60.14776 21.17886 36939 ft 414 kts 71°
2026-04-22 08:24 60.15450 21.23505 36344 ft 413 kts 71°
2026-04-22 08:24 60.16114 21.29110 35730 ft 413 kts 70°
2026-04-22 08:24 60.16769 21.34700 35340 ft 406 kts 70°
2026-04-22 08:24 60.17397 21.40129 35214 ft 394 kts 70°
2026-04-22 08:25 60.18002 21.45407 35085 ft 382 kts 70°
2026-04-22 08:25 60.18586 21.50549 34899 ft 373 kts 70°
2026-04-22 08:25 60.19121 21.55621 34602 ft 369 kts 70°
2026-04-22 08:25 60.19616 21.60646 34260 ft 365 kts 70°
2026-04-22 08:26 60.20091 21.65638 33887 ft 361 kts 70°
2026-04-22 08:26 60.20560 21.70581 33031 ft 365 kts 71°
2026-04-22 08:26 60.21067 21.75729 31630 ft 385 kts 71°
2026-04-22 08:26 60.21601 21.81111 30737 ft 399 kts 72°
2026-04-22 08:27 60.22146 21.86644 30030 ft 407 kts 72°
2026-04-22 08:27 60.22692 21.92286 29355 ft 414 kts 72°
2026-04-22 08:27 60.23237 21.98017 28651 ft 420 kts 73°
2026-04-22 08:27 60.23783 22.03823 27972 ft 425 kts 73°
2026-04-22 08:28 60.24336 22.09709 27305 ft 430 kts 73°
2026-04-22 08:28 60.24896 22.15655 26658 ft 435 kts 73°
2026-04-22 08:28 60.25462 22.21672 26007 ft 440 kts 73°
2026-04-22 08:28 60.26034 22.27772 25383 ft 445 kts 73°
2026-04-22 08:29 60.26605 22.33920 24781 ft 450 kts 74°
2026-04-22 08:29 60.27172 22.40061 24190 ft 455 kts 74°
2026-04-22 08:29 60.27752 22.46362 23604 ft 459 kts 74°
2026-04-22 08:29 60.28331 22.52681 22911 ft 458 kts 74°
2026-04-22 08:30 60.28903 22.58989 22224 ft 456 kts 75°
2026-04-22 08:30 60.29469 22.65267 21586 ft 454 kts 75°
2026-04-22 08:30 60.30030 22.71507 20971 ft 451 kts 75°
2026-04-22 08:30 60.30587 22.77726 20339 ft 449 kts 75°
2026-04-22 08:31 60.31138 22.83917 19719 ft 447 kts 75°
2026-04-22 08:31 60.31680 22.90069 19098 ft 445 kts 75°
2026-04-22 08:31 60.32754 23.02308 17863 ft 440 kts 75°
2026-04-22 08:32 60.33282 23.08374 17189 ft 437 kts 75°
2026-04-22 08:32 60.33803 23.14403 16568 ft 435 kts 75°
2026-04-22 08:32 60.34320 23.20395 16074 ft 433 kts 75°
2026-04-22 08:32 60.34835 23.26368 15591 ft 431 kts 75°
2026-04-22 08:33 60.35345 23.32312 15109 ft 429 kts 75°
2026-04-22 08:33 60.35847 23.38231 14636 ft 427 kts 75°
2026-04-22 08:33 60.36341 23.44126 14175 ft 425 kts 75°
2026-04-22 08:33 60.36829 23.49994 13702 ft 423 kts 75°
2026-04-22 08:34 60.37315 23.55844 13164 ft 421 kts 75°
2026-04-22 08:34 60.37795 23.61655 12636 ft 417 kts 76°
2026-04-22 08:34 60.38270 23.67419 12115 ft 414 kts 76°
2026-04-22 08:34 60.38738 23.73140 11603 ft 411 kts 76°
2026-04-22 08:35 60.39201 23.78817 11116 ft 408 kts 76°
2026-04-22 08:35 60.39660 23.84464 10606 ft 406 kts 76°
2026-04-22 08:35 60.40113 23.90065 10116 ft 395 kts 77°
2026-04-22 08:35 60.40530 23.95337 9918 ft 365 kts 77°
2026-04-22 08:36 60.40907 24.00210 9789 ft 337 kts 77°
2026-04-22 08:36 60.41255 24.04735 9654 ft 314 kts 76°
2026-04-22 08:36 60.41587 24.08986 9361 ft 301 kts 76°
2026-04-22 08:36 60.41916 24.13127 8876 ft 296 kts 75°
2026-04-22 08:37 60.42240 24.17182 8548 ft 295 kts 75°
2026-04-22 08:37 60.42567 24.21264 8241 ft 293 kts 75°
2026-04-22 08:37 60.42889 24.25314 7936 ft 291 kts 75°
2026-04-22 08:37 60.43205 24.29354 7690 ft 290 kts 75°
2026-04-22 08:38 60.43515 24.33379 7440 ft 288 kts 75°
2026-04-22 08:38 60.43820 24.37379 7190 ft 287 kts 75°
2026-04-22 08:38 60.44123 24.41365 6937 ft 285 kts 75°
2026-04-22 08:38 60.44423 24.45325 6681 ft 284 kts 75°
2026-04-22 08:39 60.44721 24.49266 6438 ft 282 kts 75°
2026-04-22 08:39 60.45016 24.53186 6184 ft 281 kts 75°
2026-04-22 08:39 60.45311 24.57089 5918 ft 280 kts 75°
2026-04-22 08:39 60.45603 24.60981 5662 ft 279 kts 75°
2026-04-22 08:40 60.45895 24.64874 5403 ft 279 kts 75°
2026-04-22 08:40 60.46186 24.68761 5212 ft 279 kts 74°
2026-04-22 08:40 60.46474 24.72652 5083 ft 279 kts 74°
2026-04-22 08:40 60.46763 24.76547 4968 ft 279 kts 74°
2026-04-22 08:41 60.47048 24.80442 4820 ft 280 kts 74°
2026-04-22 08:41 60.47332 24.84335 4697 ft 279 kts 74°
2026-04-22 08:41 60.47612 24.88227 4569 ft 279 kts 74°
2026-04-22 08:41 60.47890 24.92115 4435 ft 279 kts 74°
2026-04-22 08:42 60.48163 24.95950 4324 ft 270 kts 74°
2026-04-22 08:42 60.48403 24.99679 4189 ft 266 kts 79°
2026-04-22 08:42 60.48165 25.03391 4048 ft 267 kts 104°
2026-04-22 08:42 60.47291 25.06676 3674 ft 271 kts 127°
2026-04-22 08:43 60.45916 25.09307 3304 ft 269 kts 138°
2026-04-22 08:43 60.44521 25.11687 3066 ft 256 kts 148°
2026-04-22 08:43 60.42897 25.12734 2850 ft 239 kts 185°
2026-04-22 08:43 60.41347 25.12035 2593 ft 222 kts 217°
2026-04-22 08:44 60.40214 25.10134 2333 ft 205 kts 236°
2026-04-22 08:44 60.39284 25.08065 2070 ft 190 kts 236°
2026-04-22 08:44 60.38437 25.06183 1817 ft 172 kts 237°
2026-04-22 08:44 60.37671 25.04483 1594 ft 156 kts 235°
2026-04-22 08:45 60.36964 25.02912 1386 ft 147 kts 235°
2026-04-22 08:45 60.36297 25.01435 1185 ft 139 kts 235°
2026-04-22 08:45 60.35654 25.00009 990 ft 136 kts 235°
2026-04-22 08:45 60.35019 24.98604 794 ft 136 kts 233°
2026-04-22 08:46 60.34383 24.97198 608 ft 136 kts 234°
2026-04-22 08:46 60.33746 24.95791 420 ft 136 kts 234°
2026-04-22 08:46 60.33108 24.94383 238 ft 136 kts 235°
2026-04-22 08:46 60.32522 24.93067 165 ft 100 kts 226°
2026-04-22 08:47 60.32250 24.92491 161 ft 13 kts 224°
2026-04-22 08:47 60.32146 24.92348 163 ft 28 kts 207°
2026-04-22 08:47 60.31984 24.92229 161 ft 19 kts 197°
2026-04-22 08:47 60.31945 24.92202 161 ft 1 kts 199°
2026-04-22 08:48 60.31923 24.92188 161 ft 5 kts 198°
2026-04-22 08:48 60.31895 24.92170 161 ft 2 kts 198°
2026-04-22 08:48 60.31872 24.92157 161 ft 5 kts 192°
2026-04-22 08:48 60.31831 24.92175 161 ft 8 kts 151°
2026-04-22 08:49 60.31783 24.92260 161 ft 11 kts 136°
2026-04-22 08:49 60.31723 24.92377 161 ft 13 kts 137°
2026-04-22 08:49 60.31647 24.92513 161 ft 16 kts 138°
2026-04-22 08:49 60.31563 24.92669 161 ft 18 kts 137°
2026-04-22 08:50 60.31467 24.92843 161 ft 20 kts 139°
2026-04-22 08:50 60.31361 24.93039 161 ft 22 kts 137°
2026-04-22 08:50 60.31245 24.93256 161 ft 24 kts 136°
2026-04-22 08:50 60.31119 24.93490 161 ft 24 kts 138°
2026-04-22 08:51 60.30996 24.93718 162 ft 16 kts 137°
2026-04-22 08:51 60.31004 24.93921 161 ft 17 kts 52°
2026-04-22 08:51 60.31091 24.94114 161 ft 20 kts 48°
2026-04-22 08:51 60.31193 24.94333 162 ft 23 kts 46°
2026-04-22 08:52 60.31305 24.94590 161 ft 26 kts 47°
2026-04-22 08:52 60.31413 24.94826 161 ft 18 kts 46°
2026-04-22 08:52 60.31435 24.95058 161 ft 15 kts 96°
2026-04-22 08:52 60.31461 24.95246 161 ft 12 kts 116°
2026-04-22 08:53 60.31467 24.95388 161 ft 13 kts 51°
2026-04-22 08:53 60.31519 24.95493 161 ft 6 kts 47°
2026-04-22 08:53 60.31519 24.95515 161 ft 2 kts 115°
2026-04-22 08:53 60.31507 24.95529 161 ft 3 kts 142°
2026-04-22 08:54 60.31493 24.95559 161 ft 4 kts 142°
2026-04-22 08:54 60.31472 24.95598 161 ft 3 kts 137°
2026-04-22 08:54 60.31456 24.95628 161 ft 1 kts 137°
2026-04-22 08:54 60.31455 24.95629 161 ft 0 kts 137°